Regional Weather Roundup
Issued by NWS New Orleans/Baton Rouge, LA

Home | Current Version | Previous Version | Text Only | Print | Product List | Glossary On
Versions: 1 2 3 4 5 6 7 8 9 10 11 12 13 14 15 16 17 18 19 20 21 22 23 24 25 26 27 28 29 30 31 32 33 34 35 36 37 38 39 40 41 42 43 44 45 46 47 48 49 50
194
ASUS44 KLIX 161405
RWRLIX
NEW ORLEANS REGIONAL WEATHER ROUNDUP
NATIONAL WEATHER SERVICE NEW ORLEANS LA
900 AM CDT TUE SEP 16 2014

NOTE: "FAIR" INDICATES FEW OR NO CLOUDS BELOW 12,000 FEET WITH NO
      SIGNIFICANT WEATHER AND/OR OBSTRUCTIONS TO VISIBILITY.
      SKY/WX - SKY CONDITION AND SIGNIFICANT WEATHER.
      TMP - AIR TEMPERATURE.     DP    - DEWPOINT TEMPERATURE.
      RH  - RELATIVE HUMIDITY.   PRES  - PRESSURE.
      HI  - HEAT INDEX.          WCI   - WIND CHILL INDEX.

*  THESE STATIONS ARE NOT NWS OR FAA STATIONS AND ARE NOT UNDER
   NWS QUALITY CONTROL.

LAZ038-040-048-061>063-065>067-069-161500-
SOUTHEAST LOUISIANA

CITY           SKY/WX    TMP DP  RH WIND       PRES   REMARKS
N.O. AUDUBON     N/A     83  75  76 MISG        N/A
N.O. INTL ARPT MOSUNNY   83  74  74 CALM      30.07S
N.O. LAKEFRONT PTSUNNY   83  75  77 N6        30.08R
N.O. DOWNTOWN* PTSUNNY   84  73  70 CALM      30.08R
SLIDELL        PTSUNNY   77  73  87 N3        30.08R
BATON ROUGE    SUNNY     81  75  82 CALM      30.08R
BOOTHVILLE     CLOUDY    79  76  90 SW9       30.09S
BELLE CHASSE   PTSUNNY   84  74  71 CALM      30.07R
BOGALUSA*      PTSUNNY   78  75  89 CALM      30.09S FOG
GALLIANO*      NOT AVBL
NEW ROADS*       N/A     79  76  90 CALM      30.08S
GONZALES*        N/A     81  80  96 CALM      30.07R
HAMMOND*       SUNNY     82  73  74 CALM      30.10R
HOUMA*         PTSUNNY   81  73  78 SE9       30.09R
PORT FOURCHON* PTSUNNY   77  73  88 SW10      30.13R

$$

MSZ070-080>082-161500-
SOUTHERN MISSISSIPPI

CITY           SKY/WX    TMP DP  RH WIND       PRES   REMARKS
MCCOMB         PTSUNNY   82  72  71 N6        30.09S
GULFPORT       SUNNY     81  73  76 N7        30.06S
BILOXI         SUNNY     81  73  76 NE5       30.07S
PASCAGOULA     MOSUNNY   80  73  79 N6        30.06S
STENNIS ARPT*  MOSUNNY   81  72  74 VRB5      30.08F

$$

COASTAL OBSERVATIONS
LAKE AND NEARSHORE STATIONS

STATION/POSITION TIME  TEMP    WIND        PRES    WAVE
                       AIR SEA DIR/SP/G            HT/PER
                 (UTC) (F)     (DEG/KT/KT) (MB)    (FT/S)
PASCAGOULA       1300   77     360/  7/  9   N/A
WAVELAND YACHT   1300   78      10/  6/  7   N/A
GRAND ISLE       1300   79     190/  2/  4   N/A
SOUTHWEST PASS   1300   80     310/ 10/ 12   N/A
NEW CANAL        1300   82     350/  2/  4   N/A
SHELL BEACH      1300   80     250/  4/  5   N/A

OFFSHORE STATIONS

STATION/POSITION TIME  TEMP    WIND        PRES    WAVE
                       AIR SEA DIR/SP/G            HT/PER
                 (UTC) (F)     (DEG/KT/KT) (MB)    (FT/S)
64 S DAUPHIN ISL 1346   79 85  260/ 12/ 14 1019.1    2/ 6

$$




USA.gov is the U.S. government's official web portal to all federal, state and local government web resources and services.